Torna al catalogo

DISKSAT C

AttivoScienzaVLEO
NORAD 67219·PAYLOAD·🇺🇸 United States

Lanciato Dec 18, 2025 da Wallops Flight Facility

Loading…

Prossimi Passaggi (prossime 24 ore)

TLE

AggiornatoSource: Space-Track

Epoca: Sep 14, 2026, 06:21 UTC

1 67219U 25305A   26257.26470992  .00006168  00000-0  37708-3 0  9990
2 67219  45.0029 329.3460 0007599 309.6579  50.3627 15.11059637 40794

Traccia DISKSAT C in tempo reale con AllMySat

Download on the App Store